date,time,SUV Intensity [MED/Hr],UV Index,Daily total [MED],Since Last [MED]
10/01/2022,00:03:26,0.000,0.0,0.0,0.0
10/01/2022,00:04:17,0.000,0.0,0.0,0.0
10/01/2022,00:05:18,-0.001,0.0,0.0,0.0
10/01/2022,00:06:18,0.000,0.0,0.0,0.0
10/01/2022,00:07:17,0.000,0.0,0.0,0.0
10/01/2022,00:08:17,0.000,0.0,0.0,0.0
10/01/2022,00:09:18,0.000,0.0,0.0,0.0
10/01/2022,00:10:17,0.000,0.0,0.0,0.0
10/01/2022,00:11:17,0.000,0.0,0.0,0.0
10/01/2022,00:12:19,0.000,0.0,0.0,0.0
10/01/2022,00:13:19,0.000,0.0,0.0,0.0
10/01/2022,00:14:17,0.000,0.0,0.0,0.0
10/01/2022,00:15:18,-0.000,0.0,0.0,0.0
10/01/2022,00:16:18,-0.000,0.0,0.0,0.0
10/01/2022,00:17:19,0.000,0.0,0.0,0.0
10/01/2022,00:18:17,0.000,0.0,0.0,0.0
10/01/2022,00:19:18,0.000,0.0,0.0,0.0
10/01/2022,00:20:18,-0.000,0.0,0.0,0.0
10/01/2022,00:21:17,-0.001,0.0,0.0,0.0
10/01/2022,00:22:18,-0.000,0.0,0.0,0.0
10/01/2022,00:23:18,0.000,0.0,0.0,0.0
10/01/2022,00:24:17,-0.001,0.0,0.0,0.0
10/01/2022,00:25:18,-0.000,0.0,0.0,0.0
10/01/2022,00:26:17,0.000,0.0,0.0,0.0
10/01/2022,00:27:18,-0.000,0.0,0.0,0.0
10/01/2022,00:28:17,-0.001,0.0,0.0,0.0
10/01/2022,00:29:19,-0.001,0.0,0.0,0.0
10/01/2022,00:30:18,-0.000,0.0,0.0,0.0
10/01/2022,00:31:18,-0.000,0.0,0.0,0.0
10/01/2022,00:32:18,-0.000,0.0,0.0,0.0
10/01/2022,00:33:18,-0.000,0.0,0.0,0.0
10/01/2022,00:34:17,-0.001,0.0,0.0,0.0
10/01/2022,00:35:18,-0.000,0.0,0.0,0.0
10/01/2022,00:36:18,-0.000,0.0,0.0,0.0
10/01/2022,00:37:17,-0.001,0.0,0.0,0.0
10/01/2022,00:38:18,-0.000,0.0,0.0,0.0
10/01/2022,00:39:18,0.000,0.0,0.0,0.0
10/01/2022,00:40:18,-0.000,0.0,0.0,0.0
10/01/2022,00:41:27,-0.000,0.0,0.0,0.0
10/01/2022,00:42:26,-0.000,0.0,0.0,0.0
10/01/2022,00:43:17,-0.001,0.0,0.0,0.0
10/01/2022,00:44:17,-0.001,0.0,0.0,0.0
10/01/2022,00:45:18,-0.000,0.0,0.0,0.0
10/01/2022,00:46:18,-0.000,0.0,0.0,0.0
10/01/2022,00:47:18,0.000,0.0,0.0,0.0
10/01/2022,00:48:18,-0.000,0.0,0.0,0.0
10/01/2022,00:49:18,-0.001,0.0,0.0,0.0
10/01/2022,00:50:18,0.000,0.0,0.0,0.0
10/01/2022,00:51:26,-0.000,0.0,0.0,0.0
10/01/2022,00:52:18,-0.000,0.0,0.0,0.0
10/01/2022,00:53:18,-0.000,0.0,0.0,0.0
10/01/2022,00:54:18,-0.000,0.0,0.0,0.0
10/01/2022,00:55:18,0.000,0.0,0.0,0.0
10/01/2022,00:56:18,-0.000,0.0,0.0,0.0
10/01/2022,00:57:18,-0.000,0.0,0.0,0.0
10/01/2022,00:58:18,-0.001,0.0,0.0,0.0
10/01/2022,00:59:18,0.001,0.0,0.0,0.0
10/01/2022,01:00:18,-0.000,0.0,0.0,0.0
10/01/2022,01:01:18,-0.000,0.0,0.0,0.0
10/01/2022,01:02:17,-0.000,0.0,0.0,0.0
10/01/2022,01:03:18,-0.000,0.0,0.0,0.0
10/01/2022,01:04:26,-0.000,0.0,0.0,0.0
10/01/2022,01:05:20,-0.000,0.0,0.0,0.0
10/01/2022,01:06:18,-0.000,0.0,0.0,0.0
10/01/2022,01:07:18,-0.001,0.0,0.0,0.0
10/01/2022,01:08:17,-0.000,0.0,0.0,0.0
10/01/2022,01:09:18,-0.000,0.0,0.0,0.0
10/01/2022,01:10:18,-0.001,0.0,0.0,0.0
10/01/2022,01:11:18,-0.000,0.0,0.0,0.0
10/01/2022,01:12:17,-0.000,0.0,0.0,0.0
10/01/2022,01:13:18,0.000,0.0,0.0,0.0
10/01/2022,01:14:25,-0.000,0.0,0.0,0.0
10/01/2022,01:15:18,-0.000,0.0,0.0,0.0
10/01/2022,01:16:18,-0.001,0.0,0.0,0.0
10/01/2022,01:17:27,-0.000,0.0,0.0,0.0
10/01/2022,01:18:16,-0.001,0.0,0.0,0.0
10/01/2022,01:19:19,-0.001,0.0,0.0,0.0
10/01/2022,01:21:10,-0.000,0.0,0.0,0.0
10/01/2022,01:22:17,-0.000,0.0,0.0,0.0
10/01/2022,01:23:17,-0.001,0.0,0.0,0.0
10/01/2022,01:24:18,0.001,0.0,0.0,0.0
10/01/2022,01:25:17,-0.000,0.0,0.0,0.0
10/01/2022,01:26:18,-0.000,0.0,0.0,0.0
10/01/2022,01:27:18,-0.000,0.0,0.0,0.0
10/01/2022,01:28:18,-0.000,0.0,0.0,0.0
10/01/2022,01:29:18,0.001,0.0,0.0,0.0
10/01/2022,01:30:25,-0.000,0.0,0.0,0.0
10/01/2022,01:31:18,-0.000,0.0,0.0,0.0
10/01/2022,01:32:18,-0.001,0.0,0.0,0.0
10/01/2022,01:33:26,-0.001,0.0,0.0,0.0
10/01/2022,01:34:18,0.001,0.0,0.0,0.0
10/01/2022,01:35:18,0.001,0.0,0.0,0.0
10/01/2022,01:36:18,-0.000,0.0,0.0,0.0
10/01/2022,01:37:18,-0.000,0.0,0.0,0.0
10/01/2022,01:38:17,0.000,0.0,0.0,0.0
10/01/2022,01:39:19,-0.000,0.0,0.0,0.0
10/01/2022,01:40:26,0.000,0.0,0.0,0.0
10/01/2022,01:41:18,-0.000,0.0,0.0,0.0
10/01/2022,01:42:18,-0.000,0.0,0.0,0.0
10/01/2022,01:43:26,-0.000,0.0,0.0,0.0
10/01/2022,01:44:18,0.000,0.0,0.0,0.0
10/01/2022,01:45:18,-0.000,0.0,0.0,0.0
10/01/2022,01:46:17,-0.000,0.0,0.0,0.0
10/01/2022,01:47:18,-0.000,0.0,0.0,0.0
10/01/2022,01:48:19,0.000,0.0,0.0,0.0
10/01/2022,01:49:19,-0.000,0.0,0.0,0.0
10/01/2022,01:50:18,0.000,0.0,0.0,0.0
10/01/2022,01:51:18,0.000,0.0,0.0,0.0
10/01/2022,01:52:18,0.000,0.0,0.0,0.0
10/01/2022,01:53:26,-0.001,0.0,0.0,0.0
10/01/2022,01:54:17,-0.001,0.0,0.0,0.0
10/01/2022,01:55:17,-0.001,0.0,0.0,0.0
10/01/2022,01:56:27,0.000,0.0,0.0,0.0
10/01/2022,01:57:18,0.000,0.0,0.0,0.0
10/01/2022,01:58:18,-0.001,0.0,0.0,0.0
10/01/2022,01:59:27,-0.001,0.0,0.0,0.0
10/01/2022,02:00:18,-0.001,0.0,0.0,0.0
10/01/2022,02:01:18,0.000,0.0,0.0,0.0
10/01/2022,02:02:18,-0.000,0.0,0.0,0.0
10/01/2022,02:03:17,-0.000,0.0,0.0,0.0
10/01/2022,02:04:18,-0.001,0.0,0.0,0.0
10/01/2022,02:05:19,-0.000,0.0,0.0,0.0
10/01/2022,02:06:18,-0.000,0.0,0.0,0.0
10/01/2022,02:07:18,-0.000,0.0,0.0,0.0
10/01/2022,02:08:18,-0.000,0.0,0.0,0.0
10/01/2022,02:09:26,-0.000,0.0,0.0,0.0
10/01/2022,02:10:18,-0.000,0.0,0.0,0.0
10/01/2022,02:11:18,-0.000,0.0,0.0,0.0
10/01/2022,02:12:26,-0.000,0.0,0.0,0.0
10/01/2022,02:13:17,-0.001,0.0,0.0,0.0
10/01/2022,02:14:17,-0.000,0.0,0.0,0.0
10/01/2022,02:15:18,-0.000,0.0,0.0,0.0
10/01/2022,02:16:18,-0.000,0.0,0.0,0.0
10/01/2022,02:17:18,-0.000,0.0,0.0,0.0
10/01/2022,02:18:17,-0.001,0.0,0.0,0.0
10/01/2022,02:19:18,-0.000,0.0,0.0,0.0
10/01/2022,02:20:18,-0.000,0.0,0.0,0.0
10/01/2022,02:21:18,-0.000,0.0,0.0,0.0
10/01/2022,02:22:26,-0.000,0.0,0.0,0.0
10/01/2022,02:23:18,-0.000,0.0,0.0,0.0
10/01/2022,02:24:18,-0.000,0.0,0.0,0.0
10/01/2022,02:25:17,-0.000,0.0,0.0,0.0
10/01/2022,02:26:18,-0.000,0.0,0.0,0.0
10/01/2022,02:27:18,-0.001,0.0,0.0,0.0
10/01/2022,02:28:19,-0.000,0.0,0.0,0.0
10/01/2022,02:29:18,-0.000,0.0,0.0,0.0
10/01/2022,02:30:18,-0.000,0.0,0.0,0.0
10/01/2022,02:31:18,-0.000,0.0,0.0,0.0
10/01/2022,02:32:18,-0.000,0.0,0.0,0.0
10/01/2022,02:33:19,0.000,0.0,0.0,0.0
10/01/2022,02:34:18,-0.001,0.0,0.0,0.0
10/01/2022,02:35:17,-0.001,0.0,0.0,0.0
10/01/2022,02:36:18,-0.001,0.0,0.0,0.0
10/01/2022,02:37:18,-0.000,0.0,0.0,0.0
10/01/2022,02:38:26,-0.000,0.0,0.0,0.0
10/01/2022,02:39:18,-0.000,0.0,0.0,0.0
10/01/2022,02:40:18,-0.000,0.0,0.0,0.0
10/01/2022,02:41:18,0.000,0.0,0.0,0.0
10/01/2022,02:42:18,-0.000,0.0,0.0,0.0
10/01/2022,02:43:18,-0.000,0.0,0.0,0.0
10/01/2022,02:44:18,-0.001,0.0,0.0,0.0
10/01/2022,02:45:18,-0.000,0.0,0.0,0.0
10/01/2022,02:46:19,-0.000,0.0,0.0,0.0
10/01/2022,02:47:17,-0.001,0.0,0.0,0.0
10/01/2022,02:48:18,-0.000,0.0,0.0,0.0
10/01/2022,02:49:18,-0.000,0.0,0.0,0.0
10/01/2022,02:50:18,-0.000,0.0,0.0,0.0
10/01/2022,02:51:27,-0.000,0.0,0.0,0.0
10/01/2022,02:52:18,-0.000,0.0,0.0,0.0
10/01/2022,02:53:18,-0.001,0.0,0.0,0.0
10/01/2022,02:54:18,-0.000,0.0,0.0,0.0
10/01/2022,02:55:18,-0.000,0.0,0.0,0.0
10/01/2022,02:56:18,-0.001,0.0,0.0,0.0
10/01/2022,02:57:19,-0.000,0.0,0.0,0.0
10/01/2022,02:58:18,-0.000,0.0,0.0,0.0
10/01/2022,02:59:18,-0.000,0.0,0.0,0.0
10/01/2022,03:00:18,-0.000,0.0,0.0,0.0
10/01/2022,03:01:26,0.000,0.0,0.0,0.0
10/01/2022,03:02:17,-0.000,0.0,0.0,0.0
10/01/2022,03:03:18,-0.000,0.0,0.0,0.0
10/01/2022,03:04:26,-0.000,0.0,0.0,0.0
10/01/2022,03:05:18,-0.001,0.0,0.0,0.0
10/01/2022,03:06:18,-0.000,0.0,0.0,0.0
10/01/2022,03:07:18,0.000,0.0,0.0,0.0
10/01/2022,03:08:17,0.001,0.0,0.0,0.0
10/01/2022,03:09:18,0.000,0.0,0.0,0.0
10/01/2022,03:10:18,-0.000,0.0,0.0,0.0
10/01/2022,03:11:17,-0.000,0.0,0.0,0.0
10/01/2022,03:12:18,0.001,0.0,0.0,0.0
10/01/2022,03:13:17,-0.001,0.0,0.0,0.0
10/01/2022,03:14:18,-0.000,0.0,0.0,0.0
10/01/2022,03:15:18,-0.000,0.0,0.0,0.0
10/01/2022,03:16:18,0.000,0.0,0.0,0.0
10/01/2022,03:17:17,-0.001,0.0,0.0,0.0
10/01/2022,03:18:18,0.000,0.0,0.0,0.0
10/01/2022,03:19:19,-0.000,0.0,0.0,0.0
10/01/2022,03:20:18,-0.001,0.0,0.0,0.0
10/01/2022,03:21:18,-0.000,0.0,0.0,0.0
10/01/2022,03:22:18,-0.000,0.0,0.0,0.0
10/01/2022,03:23:18,-0.000,0.0,0.0,0.0
10/01/2022,03:24:18,0.000,0.0,0.0,0.0
10/01/2022,03:25:17,-0.000,0.0,0.0,0.0
10/01/2022,03:26:19,0.000,0.0,0.0,0.0
10/01/2022,03:27:18,-0.000,0.0,0.0,0.0
10/01/2022,03:28:18,-0.000,0.0,0.0,0.0
10/01/2022,03:29:17,-0.001,0.0,0.0,0.0
10/01/2022,03:30:26,0.001,0.0,0.0,0.0
10/01/2022,03:31:18,-0.000,0.0,0.0,0.0
10/01/2022,03:32:18,-0.000,0.0,0.0,0.0
10/01/2022,03:33:18,-0.000,0.0,0.0,0.0
10/01/2022,03:34:18,-0.000,0.0,0.0,0.0
10/01/2022,03:35:18,-0.001,0.0,0.0,0.0
10/01/2022,03:36:18,-0.001,0.0,0.0,0.0
10/01/2022,03:37:18,0.001,0.0,0.0,0.0
10/01/2022,03:38:18,-0.000,0.0,0.0,0.0
10/01/2022,03:39:19,-0.000,0.0,0.0,0.0
10/01/2022,03:40:18,-0.000,0.0,0.0,0.0
10/01/2022,03:41:18,-0.001,0.0,0.0,0.0
10/01/2022,03:42:18,-0.000,0.0,0.0,0.0
10/01/2022,03:43:18,-0.000,0.0,0.0,0.0
10/01/2022,03:44:18,-0.000,0.0,0.0,0.0
10/01/2022,03:45:19,-0.000,0.0,0.0,0.0
10/01/2022,03:46:26,-0.000,0.0,0.0,0.0
10/01/2022,03:47:18,-0.000,0.0,0.0,0.0
10/01/2022,03:48:18,-0.000,0.0,0.0,0.0
10/01/2022,03:49:18,-0.001,0.0,0.0,0.0
10/01/2022,03:50:18,-0.000,0.0,0.0,0.0
10/01/2022,03:51:18,-0.000,0.0,0.0,0.0
10/01/2022,03:52:18,0.000,0.0,0.0,0.0
10/01/2022,03:53:18,0.000,0.0,0.0,0.0
10/01/2022,03:54:18,0.000,0.0,0.0,0.0
10/01/2022,03:55:18,-0.000,0.0,0.0,0.0
10/01/2022,03:56:18,-0.001,0.0,0.0,0.0
10/01/2022,03:57:18,-0.000,0.0,0.0,0.0
10/01/2022,03:58:18,-0.000,0.0,0.0,0.0
10/01/2022,03:59:17,-0.000,0.0,0.0,0.0
10/01/2022,04:00:18,0.001,0.0,0.0,0.0
10/01/2022,04:01:18,-0.000,0.0,0.0,0.0
10/01/2022,04:02:18,0.000,0.0,0.0,0.0
10/01/2022,04:03:18,-0.001,0.0,0.0,0.0
10/01/2022,04:04:19,-0.000,0.0,0.0,0.0
10/01/2022,04:05:18,-0.001,0.0,0.0,0.0
10/01/2022,04:06:19,-0.000,0.0,0.0,0.0
10/01/2022,04:07:17,-0.001,0.0,0.0,0.0
10/01/2022,04:08:18,-0.000,0.0,0.0,0.0
10/01/2022,04:09:26,0.000,0.0,0.0,0.0
10/01/2022,04:10:17,-0.000,0.0,0.0,0.0
10/01/2022,04:11:18,-0.000,0.0,0.0,0.0
10/01/2022,04:12:18,0.000,0.0,0.0,0.0
10/01/2022,04:13:10,-0.001,0.0,0.0,0.0
10/01/2022,04:14:18,-0.000,0.0,0.0,0.0
10/01/2022,04:15:18,0.001,0.0,0.0,0.0
10/01/2022,04:16:18,-0.000,0.0,0.0,0.0
10/01/2022,04:17:18,-0.001,0.0,0.0,0.0
10/01/2022,04:18:18,-0.000,0.0,0.0,0.0
10/01/2022,04:19:18,-0.000,0.0,0.0,0.0
10/01/2022,04:20:17,-0.001,0.0,0.0,0.0
10/01/2022,04:21:18,-0.001,0.0,0.0,0.0
10/01/2022,04:22:18,0.000,0.0,0.0,0.0
10/01/2022,04:23:17,0.000,0.0,0.0,0.0
10/01/2022,04:24:18,-0.000,0.0,0.0,0.0
10/01/2022,04:25:18,-0.001,0.0,0.0,0.0
10/01/2022,04:26:18,-0.001,0.0,0.0,0.0
10/01/2022,04:27:19,-0.000,0.0,0.0,0.0
10/01/2022,04:28:18,-0.000,0.0,0.0,0.0
10/01/2022,04:29:19,-0.001,0.0,0.0,0.0
10/01/2022,04:30:17,-0.000,0.0,0.0,0.0
10/01/2022,04:31:18,-0.000,0.0,0.0,0.0
10/01/2022,04:32:18,-0.000,0.0,0.0,0.0
10/01/2022,04:33:18,-0.000,0.0,0.0,0.0
10/01/2022,04:34:18,-0.000,0.0,0.0,0.0
10/01/2022,04:35:18,-0.000,0.0,0.0,0.0
10/01/2022,04:37:10,-0.001,0.0,0.0,0.0
10/01/2022,04:38:18,-0.000,0.0,0.0,0.0
10/01/2022,04:39:27,-0.000,0.0,0.0,0.0
10/01/2022,04:40:16,-0.000,0.0,0.0,0.0
10/01/2022,04:41:18,-0.000,0.0,0.0,0.0
10/01/2022,04:42:26,-0.000,0.0,0.0,0.0
10/01/2022,04:43:17,-0.000,0.0,0.0,0.0
10/01/2022,04:44:19,-0.000,0.0,0.0,0.0
10/01/2022,04:45:18,-0.000,0.0,0.0,0.0
10/01/2022,04:46:17,-0.000,0.0,0.0,0.0
10/01/2022,04:47:18,-0.000,0.0,0.0,0.0
10/01/2022,04:48:18,0.000,0.0,0.0,0.0
10/01/2022,04:49:17,-0.001,0.0,0.0,0.0
10/01/2022,04:50:18,-0.001,0.0,0.0,0.0
10/01/2022,04:51:18,0.001,0.0,0.0,0.0
10/01/2022,04:52:26,0.000,0.0,0.0,0.0
10/01/2022,04:53:18,-0.000,0.0,0.0,0.0
10/01/2022,04:54:18,-0.000,0.0,0.0,0.0
10/01/2022,04:55:26,-0.000,0.0,0.0,0.0
10/01/2022,04:56:18,-0.000,0.0,0.0,0.0
10/01/2022,04:57:19,-0.000,0.0,0.0,0.0
10/01/2022,04:58:18,-0.000,0.0,0.0,0.0
10/01/2022,04:59:18,-0.000,0.0,0.0,0.0
10/01/2022,05:00:18,-0.001,0.0,0.0,0.0
10/01/2022,05:01:18,-0.000,0.0,0.0,0.0
10/01/2022,05:02:18,-0.000,0.0,0.0,0.0
10/01/2022,05:03:18,-0.000,0.0,0.0,0.0
10/01/2022,05:05:27,-0.000,0.0,0.0,0.0
10/01/2022,05:06:18,-0.001,0.0,0.0,0.0
10/01/2022,05:07:19,-0.000,0.0,0.0,0.0
10/01/2022,05:08:26,0.001,0.0,0.0,0.0
10/01/2022,05:09:18,-0.000,0.0,0.0,0.0
10/01/2022,05:10:18,-0.000,0.0,0.0,0.0
10/01/2022,05:11:18,-0.000,0.0,0.0,0.0
10/01/2022,05:12:18,-0.000,0.0,0.0,0.0
10/01/2022,05:13:18,-0.000,0.0,0.0,0.0
10/01/2022,05:14:26,-0.000,0.0,0.0,0.0
10/01/2022,05:15:18,-0.000,0.0,0.0,0.0
10/01/2022,05:16:18,-0.000,0.0,0.0,0.0
10/01/2022,05:17:18,-0.000,0.0,0.0,0.0
10/01/2022,05:18:18,-0.000,0.0,0.0,0.0
10/01/2022,05:19:18,-0.001,0.0,0.0,0.0
10/01/2022,05:20:18,-0.001,0.0,0.0,0.0
10/01/2022,05:21:27,-0.001,0.0,0.0,0.0
10/01/2022,05:22:18,-0.000,0.0,0.0,0.0
10/01/2022,05:23:18,-0.000,0.0,0.0,0.0
10/01/2022,05:24:19,-0.000,0.0,0.0,0.0
10/01/2022,05:25:19,0.000,0.0,0.0,0.0
10/01/2022,05:26:18,-0.001,0.0,0.0,0.0
10/01/2022,05:27:18,-0.000,0.0,0.0,0.0
10/01/2022,05:28:18,-0.000,0.0,0.0,0.0
10/01/2022,05:29:18,0.000,0.0,0.0,0.0
10/01/2022,05:30:19,-0.001,0.0,0.0,0.0
10/01/2022,05:31:18,-0.000,0.0,0.0,0.0
10/01/2022,05:32:18,-0.000,0.0,0.0,0.0
10/01/2022,05:33:19,-0.000,0.0,0.0,0.0
10/01/2022,05:34:26,0.001,0.0,0.0,0.0
10/01/2022,05:35:19,-0.001,0.0,0.0,0.0
10/01/2022,05:36:19,-0.000,0.0,0.0,0.0
10/01/2022,05:37:18,-0.000,0.0,0.0,0.0
10/01/2022,05:38:18,-0.000,0.0,0.0,0.0
10/01/2022,05:39:18,-0.001,0.0,0.0,0.0
10/01/2022,05:40:18,-0.000,0.0,0.0,0.0
10/01/2022,05:41:18,-0.000,0.0,0.0,0.0
10/01/2022,05:42:19,-0.001,0.0,0.0,0.0
10/01/2022,05:43:18,-0.000,0.0,0.0,0.0
10/01/2022,05:44:18,-0.000,0.0,0.0,0.0
10/01/2022,05:45:18,-0.000,0.0,0.0,0.0
10/01/2022,05:46:19,-0.000,0.0,0.0,0.0
10/01/2022,05:47:18,0.001,0.0,0.0,0.0
10/01/2022,05:48:18,-0.001,0.0,0.0,0.0
10/01/2022,05:49:18,-0.001,0.0,0.0,0.0
10/01/2022,05:50:26,-0.001,0.0,0.0,0.0
10/01/2022,05:51:15,-0.000,0.0,0.0,0.0
10/01/2022,05:52:18,-0.000,0.0,0.0,0.0
10/01/2022,05:53:26,-0.001,0.0,0.0,0.0
10/01/2022,05:54:18,-0.001,0.0,0.0,0.0
10/01/2022,05:55:18,0.000,0.0,0.0,0.0
10/01/2022,05:56:18,-0.000,0.0,0.0,0.0
10/01/2022,05:57:18,-0.000,0.0,0.0,0.0
10/01/2022,05:58:18,-0.000,0.0,0.0,0.0
10/01/2022,05:59:18,-0.001,0.0,0.0,0.0
10/01/2022,06:00:18,-0.001,0.0,0.0,0.0
10/01/2022,06:01:19,-0.000,0.0,0.0,0.0
10/01/2022,06:02:18,-0.000,0.0,0.0,0.0
10/01/2022,06:03:27,-0.001,0.0,0.0,0.0
10/01/2022,06:04:17,0.000,0.0,0.0,0.0
10/01/2022,06:05:18,-0.000,0.0,0.0,0.0
10/01/2022,06:06:18,0.000,0.0,0.0,0.0
10/01/2022,06:07:18,0.000,0.0,0.0,0.0
10/01/2022,06:08:18,-0.000,0.0,0.0,0.0
10/01/2022,06:09:18,0.001,0.0,0.0,0.0
10/01/2022,06:10:18,-0.000,0.0,0.0,0.0
10/01/2022,06:11:19,-0.001,0.0,0.0,0.0
10/01/2022,06:12:27,-0.000,0.0,0.0,0.0
10/01/2022,06:13:18,-0.000,0.0,0.0,0.0
10/01/2022,06:14:18,-0.000,0.0,0.0,0.0
10/01/2022,06:15:18,-0.000,0.0,0.0,0.0
10/01/2022,06:16:26,-0.000,0.0,0.0,0.0
10/01/2022,06:17:18,-0.000,0.0,0.0,0.0
10/01/2022,06:18:18,0.001,0.0,0.0,0.0
10/01/2022,06:19:26,-0.000,0.0,0.0,0.0
10/01/2022,06:20:19,-0.000,0.0,0.0,0.0
10/01/2022,06:21:19,-0.000,0.0,0.0,0.0
10/01/2022,06:22:18,-0.000,0.0,0.0,0.0
10/01/2022,06:23:18,-0.000,0.0,0.0,0.0
10/01/2022,06:24:18,-0.000,0.0,0.0,0.0
10/01/2022,06:25:18,-0.000,0.0,0.0,0.0
10/01/2022,06:26:18,-0.000,0.0,0.0,0.0
10/01/2022,06:27:19,-0.001,0.0,0.0,0.0
10/01/2022,06:28:18,-0.000,0.0,0.0,0.0
10/01/2022,06:29:26,-0.001,0.0,0.0,0.0
10/01/2022,06:30:18,0.000,0.0,0.0,0.0
10/01/2022,06:31:19,-0.000,0.0,0.0,0.0
10/01/2022,06:32:26,-0.000,0.0,0.0,0.0
10/01/2022,06:33:18,-0.000,0.0,0.0,0.0
10/01/2022,06:34:19,-0.000,0.0,0.0,0.0
10/01/2022,06:35:18,-0.001,0.0,0.0,0.0
10/01/2022,06:36:18,-0.000,0.0,0.0,0.0
10/01/2022,06:37:19,-0.000,0.0,0.0,0.0
10/01/2022,06:38:18,-0.000,0.0,0.0,0.0
10/01/2022,06:39:18,-0.000,0.0,0.0,0.0
10/01/2022,06:40:19,-0.000,0.0,0.0,0.0
10/01/2022,06:41:18,-0.000,0.0,0.0,0.0
10/01/2022,06:42:26,-0.000,0.0,0.0,0.0
10/01/2022,06:43:18,-0.000,0.0,0.0,0.0
10/01/2022,06:44:18,0.000,0.0,0.0,0.0
10/01/2022,06:45:27,-0.001,0.0,0.0,0.0
10/01/2022,06:46:18,-0.000,0.0,0.0,0.0
10/01/2022,06:47:19,-0.000,0.0,0.0,0.0
10/01/2022,06:48:18,-0.001,0.0,0.0,0.0
10/01/2022,06:49:19,-0.000,0.0,0.0,0.0
10/01/2022,06:50:18,-0.000,0.0,0.0,0.0
10/01/2022,06:51:18,-0.001,0.0,0.0,0.0
10/01/2022,06:52:18,-0.000,0.0,0.0,0.0
10/01/2022,06:53:18,-0.000,0.0,0.0,0.0
10/01/2022,06:54:18,-0.000,0.0,0.0,0.0
10/01/2022,06:55:18,-0.000,0.0,0.0,0.0
10/01/2022,06:56:19,0.001,0.0,0.0,0.0
10/01/2022,06:57:18,-0.000,0.0,0.0,0.0
10/01/2022,06:58:18,-0.000,0.0,0.0,0.0
10/01/2022,06:59:18,-0.000,0.0,0.0,0.0
10/01/2022,07:00:16,-0.000,0.0,0.0,0.0
10/01/2022,07:01:26,-0.000,0.0,0.0,0.0
10/01/2022,07:02:18,-0.000,0.0,0.0,0.0
10/01/2022,07:03:18,-0.001,0.0,0.0,0.0
10/01/2022,07:04:19,-0.000,0.0,0.0,0.0
10/01/2022,07:05:18,-0.001,0.0,0.0,0.0
10/01/2022,07:06:19,-0.000,0.0,0.0,0.0
10/01/2022,07:07:18,-0.001,0.0,0.0,0.0
10/01/2022,07:08:18,-0.000,0.0,0.0,0.0
10/01/2022,07:09:19,-0.001,0.0,0.0,0.0
10/01/2022,07:10:18,-0.000,0.0,0.0,0.0
10/01/2022,07:11:18,-0.001,0.0,0.0,0.0
10/01/2022,07:12:19,-0.000,0.0,0.0,0.0
10/01/2022,07:13:18,-0.001,0.0,0.0,0.0
10/01/2022,07:14:27,-0.000,0.0,0.0,0.0
10/01/2022,07:15:18,-0.000,0.0,0.0,0.0
10/01/2022,07:16:18,-0.000,0.0,0.0,0.0
10/01/2022,07:17:19,-0.000,0.0,0.0,0.0
10/01/2022,07:18:18,-0.000,0.0,0.0,0.0
10/01/2022,07:19:18,-0.001,0.0,0.0,0.0
10/01/2022,07:20:18,-0.000,0.0,0.0,0.0
10/01/2022,07:21:18,-0.001,0.0,0.0,0.0
10/01/2022,07:22:18,0.000,0.0,0.0,0.0
10/01/2022,07:23:19,-0.000,0.0,0.0,0.0
10/01/2022,07:24:18,-0.000,0.0,0.0,0.0
10/01/2022,07:25:19,-0.000,0.0,0.0,0.0
10/01/2022,07:26:18,-0.000,0.0,0.0,0.0
10/01/2022,07:27:19,-0.000,0.0,0.0,0.0
10/01/2022,07:28:18,0.000,0.0,0.0,0.0
10/01/2022,07:29:18,-0.001,0.0,0.0,0.0
10/01/2022,07:30:18,-0.000,0.0,0.0,0.0
10/01/2022,07:31:19,-0.000,0.0,0.0,0.0
10/01/2022,07:32:19,-0.000,0.0,0.0,0.0
10/01/2022,07:33:18,-0.000,0.0,0.0,0.0
10/01/2022,07:34:18,-0.000,0.0,0.0,0.0
10/01/2022,07:35:18,-0.000,0.0,0.0,0.0
10/01/2022,07:36:21,-0.001,0.0,0.0,0.0
10/01/2022,07:37:18,-0.000,0.0,0.0,0.0
10/01/2022,07:38:18,-0.001,0.0,0.0,0.0
10/01/2022,07:39:18,-0.001,0.0,0.0,0.0
10/01/2022,07:40:18,-0.001,0.0,0.0,0.0
10/01/2022,07:41:18,-0.000,0.0,0.0,0.0
10/01/2022,07:42:19,-0.000,0.0,0.0,0.0
10/01/2022,07:43:18,-0.001,0.0,0.0,0.0
10/01/2022,07:44:18,-0.000,0.0,0.0,0.0
10/01/2022,07:45:19,0.000,0.0,0.0,0.0
10/01/2022,07:46:18,-0.000,0.0,0.0,0.0
10/01/2022,07:47:18,0.000,0.0,0.0,0.0
10/01/2022,07:48:18,-0.001,0.0,0.0,0.0
10/01/2022,07:49:18,0.000,0.0,0.0,0.0
10/01/2022,07:50:19,-0.000,0.0,0.0,0.0
10/01/2022,07:51:18,-0.000,0.0,0.0,0.0
10/01/2022,07:52:18,0.000,0.0,0.0,0.0
10/01/2022,07:53:27,-0.001,0.0,0.0,0.0
10/01/2022,07:54:18,-0.001,0.0,0.0,0.0
10/01/2022,07:55:18,-0.001,0.0,0.0,0.0
10/01/2022,07:56:18,0.000,0.0,0.0,0.0
10/01/2022,07:57:18,-0.001,0.0,0.0,0.0
10/01/2022,07:58:18,-0.000,0.0,0.0,0.0
10/01/2022,07:59:18,0.000,0.0,0.0,0.0
10/01/2022,08:00:18,0.001,0.0,0.0,0.0
10/01/2022,08:01:19,0.000,0.0,0.0,0.0
10/01/2022,08:02:18,0.000,0.0,0.0,0.0
10/01/2022,08:03:18,-0.001,0.0,0.0,0.0
10/01/2022,08:04:19,0.000,0.0,0.0,0.0
10/01/2022,08:05:18,0.001,0.0,0.0,0.0
10/01/2022,08:06:19,0.000,0.0,0.0,0.0
10/01/2022,08:07:19,0.000,0.0,0.0,0.0
10/01/2022,08:08:18,-0.000,0.0,0.0,0.0
10/01/2022,08:09:27,0.000,0.0,0.0,0.0
10/01/2022,08:10:18,0.000,0.0,0.0,0.0
10/01/2022,08:11:18,0.000,0.0,0.0,0.0
10/01/2022,08:12:18,0.001,0.0,0.0,0.0
10/01/2022,08:13:18,0.000,0.0,0.0,0.0
10/01/2022,08:14:18,0.000,0.0,0.0,0.0
10/01/2022,08:15:19,0.001,0.0,0.0,0.0
10/01/2022,08:16:18,0.001,0.0,0.0,0.0
10/01/2022,08:17:19,0.001,0.0,0.0,0.0
10/01/2022,08:18:27,0.001,0.0,0.0,0.0
10/01/2022,08:19:18,0.002,0.0,0.0,0.0
10/01/2022,08:20:18,0.002,0.0,0.0,0.0
10/01/2022,08:21:19,0.002,0.0,0.0,0.0
10/01/2022,08:22:26,0.002,0.0,0.0,0.0
10/01/2022,08:23:19,0.002,0.0,0.0,0.0
10/01/2022,08:24:19,0.002,0.0,0.0,0.0
10/01/2022,08:25:19,0.002,0.0,0.0,0.0
10/01/2022,08:26:26,0.003,0.0,0.0,0.0
10/01/2022,08:27:19,0.003,0.0,0.0,0.0
10/01/2022,08:28:18,0.003,0.0,0.0,0.0
10/01/2022,08:29:18,0.003,0.0,0.0,0.0
10/01/2022,08:30:18,0.003,0.0,0.0,0.0
10/01/2022,08:31:19,0.003,0.0,0.0,0.0
10/01/2022,08:32:18,0.004,0.0,0.0,0.0
10/01/2022,08:33:19,0.004,0.0,0.0,0.0
10/01/2022,08:34:18,0.005,0.0,0.0,0.0
10/01/2022,08:35:18,0.004,0.0,0.0,0.0
10/01/2022,08:36:26,0.004,0.0,0.0,0.0
10/01/2022,08:37:18,0.003,0.0,0.0,0.0
10/01/2022,08:38:18,0.005,0.0,0.0,0.0
10/01/2022,08:39:19,0.005,0.0,0.0,0.0
10/01/2022,08:40:19,0.005,0.0,0.0,0.0
10/01/2022,08:41:18,0.006,0.0,0.0,0.0
10/01/2022,08:42:18,0.005,0.0,0.0,0.0
10/01/2022,08:43:19,0.005,0.0,0.0,0.0
10/01/2022,08:44:18,0.006,0.0,0.0,0.0
10/01/2022,08:45:18,0.007,0.0,0.0,0.0
10/01/2022,08:46:18,0.006,0.0,0.0,0.0
10/01/2022,08:47:19,0.006,0.0,0.0,0.0
10/01/2022,08:48:18,0.007,0.0,0.0,0.0
10/01/2022,08:49:18,0.006,0.0,0.0,0.0
10/01/2022,08:50:18,0.007,0.0,0.001,0.001
10/01/2022,08:51:19,0.007,0.0,0.001,0.0
10/01/2022,08:52:18,0.006,0.0,0.001,0.0
10/01/2022,08:53:18,0.006,0.0,0.001,0.0
10/01/2022,08:54:19,0.007,0.0,0.001,0.0
10/01/2022,08:55:18,0.007,0.0,0.001,0.0
10/01/2022,08:56:19,0.007,0.0,0.001,0.0
10/01/2022,08:57:19,0.007,0.0,0.001,0.0
10/01/2022,08:58:19,0.007,0.0,0.001,0.0
10/01/2022,08:59:27,0.007,0.0,0.001,0.0
10/01/2022,09:00:18,0.008,0.0,0.002,0.001
10/01/2022,09:01:18,0.008,0.0,0.002,0.0
10/01/2022,09:02:26,0.008,0.0,0.002,0.0
10/01/2022,09:03:19,0.009,0.0,0.002,0.0
10/01/2022,09:04:19,0.009,0.0,0.002,0.0
10/01/2022,09:05:19,0.009,0.0,0.002,0.0
10/01/2022,09:06:18,0.008,0.0,0.002,0.0
10/01/2022,09:07:18,0.010,0.0,0.003,0.001
10/01/2022,09:08:18,0.009,0.0,0.003,0.0
10/01/2022,09:09:18,0.009,0.0,0.003,0.0
10/01/2022,09:10:18,0.011,0.0,0.003,0.0
10/01/2022,09:11:18,0.010,0.0,0.003,0.0
10/01/2022,09:12:19,0.010,0.0,0.003,0.0
10/01/2022,09:13:21,0.012,0.0,0.004,0.001
10/01/2022,09:14:18,0.012,0.0,0.004,0.0
10/01/2022,09:15:27,0.012,0.0,0.004,0.0
10/01/2022,09:16:18,0.013,0.0,0.004,0.0
10/01/2022,09:17:19,0.013,0.0,0.004,0.0
10/01/2022,09:18:18,0.014,0.0,0.005,0.001
10/01/2022,09:19:18,0.014,0.0,0.005,0.0
10/01/2022,09:20:19,0.014,0.0,0.005,0.0
10/01/2022,09:21:18,0.014,0.0,0.005,0.0
10/01/2022,09:22:18,0.015,0.0,0.006,0.001
10/01/2022,09:23:18,0.015,0.0,0.006,0.0
10/01/2022,09:24:19,0.016,0.0,0.006,0.0
10/01/2022,09:25:27,0.016,0.0,0.006,0.0
10/01/2022,09:26:19,0.016,0.0,0.007,0.001
10/01/2022,09:27:19,0.016,0.0,0.007,0.0
10/01/2022,09:28:27,0.016,0.0,0.007,0.0
10/01/2022,09:29:18,0.016,0.0,0.007,0.0
10/01/2022,09:30:19,0.017,0.0,0.008,0.001
10/01/2022,09:31:18,0.017,0.0,0.008,0.0
10/01/2022,09:32:18,0.018,0.0,0.008,0.0
10/01/2022,09:33:19,0.019,0.0,0.009,0.001
10/01/2022,09:34:19,0.019,0.0,0.009,-0.0
10/01/2022,09:35:18,0.019,0.0,0.009,-0.0
10/01/2022,09:36:19,0.019,0.0,0.01,0.001
10/01/2022,09:37:18,0.020,0.0,0.01,0.0
10/01/2022,09:38:18,0.021,0.0,0.01,0.0
10/01/2022,09:39:19,0.022,0.0,0.011,0.001
10/01/2022,09:40:18,0.022,0.0,0.011,-0.0
10/01/2022,09:41:27,0.023,0.0,0.011,-0.0
10/01/2022,09:42:18,0.023,0.0,0.012,0.001
10/01/2022,09:43:18,0.023,0.0,0.012,0.0
10/01/2022,09:44:18,0.024,0.0,0.012,0.0
10/01/2022,09:45:19,0.026,0.0,0.013,0.001
10/01/2022,09:46:18,0.026,0.0,0.013,-0.0
10/01/2022,09:47:18,0.027,0.0,0.014,0.001
10/01/2022,09:48:18,0.027,0.0,0.014,0.0
10/01/2022,09:49:27,0.028,0.0,0.015,0.001
10/01/2022,09:50:18,0.029,0.0,0.015,0.0
10/01/2022,09:51:19,0.030,0.0,0.016,0.001
10/01/2022,09:52:19,0.031,0.0,0.016,0.0
10/01/2022,09:53:18,0.032,0.0,0.017,0.001
10/01/2022,09:54:26,0.033,0.0,0.017,0.0
10/01/2022,09:55:18,0.033,0.0,0.018,0.001
10/01/2022,09:56:19,0.034,0.0,0.018,-0.0
10/01/2022,09:57:19,0.035,0.0,0.019,0.001
10/01/2022,09:58:18,0.035,0.0,0.019,0.0
10/01/2022,09:59:19,0.035,0.0,0.02,0.001
10/01/2022,10:00:18,0.034,0.0,0.021,0.001
10/01/2022,10:01:19,0.036,0.0,0.021,0.0
10/01/2022,10:02:18,0.036,0.0,0.022,0.001
10/01/2022,10:03:09,0.037,0.0,0.022,-0.0
10/01/2022,10:04:19,0.037,0.0,0.023,0.001
10/01/2022,10:05:18,0.040,0.0,0.024,0.001
10/01/2022,10:06:19,0.038,0.0,0.024,0.0
10/01/2022,10:07:26,0.040,0.0,0.025,0.001
10/01/2022,10:08:18,0.040,0.0,0.026,0.001
10/01/2022,10:09:19,0.041,0.0,0.026,-0.0
10/01/2022,10:10:18,0.040,0.0,0.027,0.001
10/01/2022,10:11:19,0.041,0.0,0.028,0.001
10/01/2022,10:12:18,0.039,0.0,0.028,0.0
10/01/2022,10:13:19,0.039,0.0,0.029,0.001
10/01/2022,10:14:19,0.038,0.0,0.03,0.001
10/01/2022,10:15:19,0.038,0.0,0.03,0.0
10/01/2022,10:16:18,0.037,0.0,0.031,0.001
10/01/2022,10:17:18,0.037,0.0,0.032,0.001